User: anonymous   Login
Location: Unspecified
(0.0000°N, 0.0000°E)
Time: 18:08:18
(UTC+00:00)
Language:

Mublcom - Orbit

View from above orbital plane
View from above orbital plane
View from above satellite
View from above satellite

Ground track
Ground track

The orbit is defined by the following mean orbital elements,

1 25736U          26106.05325240 +.00000000 +00000-0 +14918-3 0 00008
2 25736  97.6932 330.6542 0005981  73.3460 286.8396 14.57071019    07
Epoch (UTC): 16 April 2026 01:16:41
Eccentricity: 0.0005981
inclination: 97.6932°
perigee height: 698 km
apogee height: 707 km
right ascension of ascending node: 330.6542°
argument of perigee: 73.3460°
revolutions per day: 14.57071019
mean anomaly at epoch: 286.8396°

The dashed part of the orbit path shows where the satellite is in the earth's shadow,  

DLR